Location: Franzen
(48.6167°N, 15.3833°E)
Time: 12:10:31
(UTC+00:00)

Cosmos 1655 Rocket - Pass Details

Date: 04 August 2021
Orbit: 969 x 1007 km, 82.9° (Epoch: 25 September)

Event Time Altitude Azimuth Distance (km) Brightness Sun altitude
Exits shadow 19:50:29 13° 152° (SSE) 2,570 5.6 -11.5°
Maximum altitude 19:55:44 40° 88° (E) 1,444 4.6 -12.1°
Drops below altitude 10° 20:01:38 10° 21° (NNE) 2,796 6.7 -12.8°
Sets 20:04:19 0° 15° (NNE) 3,750 7.5 -13.1°
